Location: Brunsen
(51.8651°N, 9.8610°E)
Time: 21:37:48
(UTC+00:00)

CZ-2C R/B - Pass Details

Date: 17 August 2024
Orbit: 782 x 869 km, 98.3° (Epoch: 07 September)

Event Time Altitude Azimuth Distance (km) Brightness Sun altitude
Exits shadow 00:16:40 23° 124° (SE) 1,732 4.1 -23.8°
Maximum altitude 00:19:42 44° 66° (ENE) 1,144 3.6 -23.7°
Drops below altitude 10° 00:24:46 10° 356° (N) 2,423 6.0 -23.5°
Sets 00:27:10 0° 350° (N) 3,346 6.8 -23.4°
